Charlottesville, VA

11:01 AM EDT on March 24, 2017 (GMT -0400)
Charlottesville-Albemarle

Weather History for KCHO - July, 2014

Change the Weather History Date:

Wednesday, July 23, 2014

  Actual Average Record
Temperature  
Mean Temperature 81 °F 75 °F  
Max Temperature 93 °F 86 °F 100 °F (1998)
Min Temperature 69 °F 65 °F 54 °F (1947)
Degree Days  
Heating Degree Days 0 0  
Month to date heating degree days 0 0  
Since 1 June heating degree days 2 11  
Since 1 July heating degree days 0 0  
Cooling Degree Days 16 10  
Month to date cooling degree days 254 247  
Year to date cooling degree days 642 552  
Since 1 June cooling degree days 526 466  
Growing Degree Days 30 (Base 50)    
Moisture  
Dew Point 70 °F    
Average Humidity 74    
Maximum Humidity 100    
Minimum Humidity 47    
Precipitation  
Precipitation 0.29 in 0.16 in 1.40 in (2002)
Month to date precipitation 2.55 3.19  
Year to date precipitation 23.67 23.39  
Sea Level Pressure  
Sea Level Pressure 29.93 in    
Wind  
Wind Speed 4 mph (WSW)    
Max Wind Speed 18 mph    
Max Gust Speed 26 mph    
Visibility 8 miles    
Events Rain , Thunderstorm    
T = Trace of Precipitation, MM = Missing Value Source: NWS Daily Summary

Daily Weather History Graph

Daily Weather History Graph

Search for Another Location

Airport or City:

Trip Planner

Search our weather history database for the weather conditions in past years. The results will help you decide how hot, cold, wet, or windy it might be!

Date:

Astronomy

Jul. 23, 2014 Rise Set
Actual Time 6:08 AM EDT 8:31 PM EDT
Civil Twilight 5:38 AM EDT 9:01 PM EDT
Nautical Twilight 5:01 AM EDT 9:38 PM EDT
Astronomical Twilight 4:20 AM EDT 10:18 PM EDT
Moon 3:26 AM EDT (7/23) 5:58 PM EDT (7/23)
Length of Visible Light 15h 22m
Length of Day
14h 22m
Waning Crescent, 10% of the Moon is Illuminated
Jul 23
Waning Crescent
Jul 26
New
Aug 3
First Quarter
Aug 10
Full
Aug 17
Last Quarter

Hourly Weather History & Observations

Time (EDT) Temp. Heat Index Dew Point Humidity Pressure Visibility Wind Dir Wind Speed Gust Speed Precip Events Conditions
12:53 AM 73.9 °F - 69.1 °F 85% 30.06 in 10.0 mi South 4.6 mph - N/A   Clear
1:53 AM 72.0 °F - 70.0 °F 93% 30.05 in 10.0 mi SSW 3.5 mph - N/A   Clear
2:53 AM 71.1 °F - 69.1 °F 93% 30.03 in 10.0 mi Calm Calm - N/A   Clear
3:53 AM 70.0 °F - 69.1 °F 97% 30.03 in 10.0 mi Calm Calm - N/A   Clear
4:53 AM 70.0 °F - 68.0 °F 93% 30.01 in 10.0 mi SSW 5.8 mph - N/A   Mostly Cloudy
5:53 AM 70.0 °F - 69.1 °F 97% 30.00 in 9.0 mi SW 4.6 mph - N/A   Mostly Cloudy
6:53 AM 70.0 °F - 68.0 °F 93% 30.01 in 6.0 mi Calm Calm - N/A   Clear
7:53 AM 73.9 °F - 71.1 °F 91% 30.02 in 10.0 mi South 5.8 mph - N/A   Scattered Clouds
8:53 AM 78.1 °F - 72.0 °F 81% 30.01 in 10.0 mi South 4.6 mph - N/A   Mostly Cloudy
9:53 AM 81.0 °F 84.9 °F 71.1 °F 72% 30.00 in 10.0 mi SW 5.8 mph - N/A   Mostly Cloudy
10:53 AM 84.0 °F 89.6 °F 72.0 °F 67% 29.99 in 10.0 mi Variable 5.8 mph - N/A   Scattered Clouds
11:53 AM 87.1 °F 92.8 °F 71.1 °F 59% 29.97 in 10.0 mi West 5.8 mph - N/A   Clear
12:53 PM 89.1 °F 92.9 °F 68.0 °F 50% 29.95 in 10.0 mi Variable 5.8 mph - N/A   Clear
1:53 PM 91.0 °F 95.2 °F 68.0 °F 47% 29.92 in 10.0 mi SW 13.8 mph - N/A   Scattered Clouds
2:53 PM 91.9 °F 95.9 °F 68.0 °F 45% 29.90 in 10.0 mi Variable 3.5 mph - N/A   Partly Cloudy
3:26 PM 88.0 °F 92.1 °F 69.1 °F 53% 29.91 in 10.0 mi West 11.5 mph - N/A   Mostly Cloudy
3:53 PM 86.0 °F 92.2 °F 72.0 °F 63% 29.88 in 10.0 mi West 11.5 mph - 0.00 in Rain Light Rain
4:07 PM 84.0 °F 89.6 °F 72.0 °F 67% 29.89 in 10.0 mi West 4.6 mph - 0.00 in Rain , Thunderstorm Light Rain
4:22 PM 82.9 °F 88.8 °F 73.0 °F 72% 29.89 in 7.0 mi North - - 0.00 in Rain Light Rain
4:53 PM 84.9 °F 91.4 °F 73.0 °F 67% 29.86 in 10.0 mi West 4.6 mph - 0.01 in   Partly Cloudy
5:53 PM 87.1 °F 94.5 °F 73.0 °F 63% 29.83 in 10.0 mi Variable 3.5 mph - N/A   Clear
6:53 PM 84.9 °F 92.1 °F 73.9 °F 69% 29.83 in 10.0 mi Calm Calm - N/A   Clear
7:35 PM 84.0 °F 87.8 °F 69.1 °F 61% 29.88 in 10.0 mi NNW 9.2 mph 17.3 mph N/A Thunderstorm Thunderstorm
7:45 PM 78.1 °F - 69.1 °F 74% 29.89 in 1.8 mi NW 17.3 mph 25.3 mph 0.04 in Rain , Thunderstorm Heavy Thunderstorms and Rain
7:51 PM 73.4 °F - 69.8 °F 88% 29.90 in 0.8 mi WNW 6.9 mph 24.2 mph 0.16 in Rain , Thunderstorm Heavy Rain
7:53 PM 75.0 °F - 69.1 °F 82% 29.88 in 0.5 mi Variable 6.9 mph 24.2 mph 0.21 in Rain , Thunderstorm Heavy Rain
8:03 PM 75.0 °F - 69.1 °F 82% 29.88 in 1.0 mi SSW 15.0 mph 21.9 mph 0.07 in Rain , Thunderstorm Thunderstorms and Rain
8:24 PM 75.0 °F - 68.0 °F 79% 29.89 in 1.0 mi SW 5.8 mph - 0.07 in Thunderstorm Haze
8:35 PM 73.9 °F - 70.0 °F 87% 29.89 in 4.0 mi Variable 3.5 mph - 0.07 in Rain , Thunderstorm Light Rain
8:53 PM 73.0 °F - 70.0 °F 90% 29.87 in 4.0 mi West 3.5 mph - 0.07 in   Overcast
9:53 PM 73.0 °F - 71.1 °F 93% 29.86 in 8.0 mi Calm Calm - N/A   Mostly Cloudy
11:48 PM 71.6 °F - 69.8 °F 94% 29.90 in 2.0 mi NNW 3.5 mph - N/A   Partly Cloudy